Change the Weather History Date:

Tuesday, June 10, 2014

  Actual Average (KOTG) Record (KOTG)
Temperature  
Mean Temperature 65 °F -  
Max Temperature 77 °F 72 °F 96 °F (1973)
Min Temperature 53 °F 53 °F 44 °F (1972)
Growing Degree Days 15 (Base 50)    
Moisture  
Dew Point 51 °F    
Average Humidity 63    
Maximum Humidity 96    
Minimum Humidity 31    
Precipitation  
Precipitation 0.00 in - - ()
Sea Level Pressure  
Sea Level Pressure 29.92 in    
Wind  
Wind Speed 2 mph (ESE)    
Max Wind Speed 9 mph    
Max Gust Speed -    
Visibility 10 miles    
Events      
Averages and records for this station are not official NWS values.
T = Trace of Precipitation, MM = Missing Value Source: NWS Daily Summary

Daily Weather History Graph

Daily Weather History Graph

Search for Another Location

Airport or City:

Trip Planner

Search our weather history database for the weather conditions in past years. The results will help you decide how hot, cold, wet, or windy it might be!

Date:

Astronomy

Jun. 10, 2014 Rise Set
Actual Time 5:40 AM CDT 9:05 PM CDT
Civil Twilight 5:04 AM CDT 9:41 PM CDT
Nautical Twilight 4:16 AM CDT 10:28 PM CDT
Astronomical Twilight 3:17 AM CDT 11:28 PM CDT
Moon 6:27 PM CDT (6/10) 3:52 AM CDT (6/10)
Length of Visible Light 16h 37m
Length of Day
15h 25m
Waxing Gibbous, 92% of the Moon is Illuminated
Jun 10
Waxing Gibbous
Jun 12
Full
Jun 19
Last Quarter
Jun 27
New
Jul 5
First Quarter

Hourly Weather History & Observations

Time (CDT) Temp. Dew Point Humidity Pressure Visibility Wind Dir Wind Speed Gust Speed Precip Events Conditions
12:14 AM 57.6 °F 54.0 °F 88% 29.99 in 10.0 mi Calm Calm - N/A   Clear
12:34 AM 58.1 °F 54.1 °F 87% 29.99 in 10.0 mi Calm Calm - N/A   Clear
12:54 AM 55.6 °F 53.2 °F 92% 29.99 in 10.0 mi Calm Calm - N/A   Clear
1:14 AM 56.5 °F 54.1 °F 92% 29.98 in 10.0 mi Calm Calm - N/A   Clear
1:34 AM 56.5 °F 53.6 °F 90% 29.98 in 10.0 mi Calm Calm - N/A   Clear
1:54 AM 56.5 °F 53.6 °F 90% 29.98 in 10.0 mi Calm Calm - N/A   Clear
2:14 AM 56.1 °F 53.4 °F 91% 29.97 in 10.0 mi Calm Calm - N/A   Clear
2:34 AM 53.6 °F 52.2 °F 95% 29.97 in 10.0 mi Calm Calm - N/A   Clear
2:54 AM 54.9 °F 53.1 °F 94% 29.97 in 10.0 mi Calm Calm - N/A   Clear
3:14 AM 54.5 °F 53.2 °F 96% 29.97 in 10.0 mi Calm Calm - N/A   Clear
3:35 AM 54.7 °F 52.7 °F 93% 29.96 in 10.0 mi Calm Calm - N/A   Clear
3:54 AM 53.2 °F 52.0 °F 95% 29.95 in 10.0 mi Calm Calm - N/A   Clear
4:14 AM 53.8 °F 51.8 °F 93% 29.95 in 10.0 mi Calm Calm - N/A   Scattered Clouds
4:33 AM 55.6 °F 52.0 °F 88% 29.95 in 10.0 mi Calm Calm - N/A   Overcast
4:54 AM 53.6 °F 52.0 °F 94% 29.96 in 10.0 mi Calm Calm - N/A   Overcast
5:14 AM 54.1 °F 52.2 °F 93% 29.96 in 10.0 mi Calm Calm - N/A   Overcast
5:34 AM 54.3 °F 52.0 °F 92% 29.96 in 10.0 mi Calm Calm - N/A   Overcast
5:54 AM 54.0 °F 52.5 °F 95% 29.96 in 10.0 mi Calm Calm - N/A   Overcast
6:14 AM 55.4 °F 52.7 °F 91% 29.96 in 10.0 mi Calm Calm - N/A   Overcast
6:34 AM 56.3 °F 53.8 °F 91% 29.95 in 10.0 mi Calm Calm - N/A   Mostly Cloudy
6:54 AM 58.1 °F 53.8 °F 86% 29.96 in 10.0 mi Calm Calm - N/A   Mostly Cloudy
7:14 AM 59.5 °F 53.8 °F 81% 29.96 in 10.0 mi Calm Calm - N/A   Overcast
7:34 AM 59.9 °F 53.2 °F 79% 29.96 in 10.0 mi Calm Calm - N/A   Overcast
7:53 AM 61.0 °F 53.4 °F 76% 29.96 in 10.0 mi Calm Calm - N/A   Overcast
8:54 AM 65.3 °F 50.2 °F 58% 29.97 in 10.0 mi SE 4.6 mph - N/A   Mostly Cloudy
9:14 AM 66.2 °F 50.4 °F 57% 29.97 in 10.0 mi SE 5.8 mph - N/A   Overcast
9:35 AM 66.2 °F 50.7 °F 57% 29.97 in 10.0 mi ESE 3.5 mph - N/A   Overcast
10:14 AM 68.2 °F 49.8 °F 52% 29.96 in 10.0 mi East 5.8 mph - N/A   Scattered Clouds
10:34 AM 68.9 °F 48.4 °F 48% 29.96 in 10.0 mi SE 6.9 mph - N/A   Scattered Clouds
10:54 AM 69.8 °F 46.2 °F 43% 29.96 in 10.0 mi SE 5.8 mph - N/A   Clear
11:14 AM 70.5 °F 47.1 °F 43% 29.95 in 10.0 mi East 5.8 mph - N/A   Clear
11:34 AM 71.1 °F 46.8 °F 42% 29.95 in 10.0 mi SE 4.6 mph - N/A   Clear
12:13 PM 72.5 °F 45.9 °F 39% 29.94 in 10.0 mi ENE 6.9 mph - N/A   Scattered Clouds
12:34 PM 71.6 °F 44.6 °F 38% 29.93 in 10.0 mi NNE 4.6 mph - N/A   Scattered Clouds
12:54 PM 72.5 °F 45.5 °F 38% 29.93 in 10.0 mi ENE 4.6 mph - N/A   Scattered Clouds
1:14 PM 73.4 °F 44.4 °F 35% 29.93 in 10.0 mi SE 4.6 mph - N/A   Scattered Clouds
1:34 PM 73.8 °F 44.2 °F 35% 29.92 in 10.0 mi East 5.8 mph - N/A   Scattered Clouds
2:14 PM 74.1 °F 43.9 °F 34% 29.92 in 10.0 mi East 6.9 mph - N/A   Mostly Cloudy
2:34 PM 75.6 °F 43.0 °F 31% 29.91 in 10.0 mi Calm Calm - N/A   Scattered Clouds
2:54 PM 76.5 °F 44.1 °F 31% 29.91 in 10.0 mi East 5.8 mph - N/A   Clear
3:14 PM 75.7 °F 45.5 °F 34% 29.91 in 10.0 mi SE 9.2 mph - N/A   Scattered Clouds
4:14 PM 76.6 °F 45.9 °F 34% 29.90 in 10.0 mi East 5.8 mph - N/A   Overcast
4:33 PM 75.9 °F 46.2 °F 35% 29.90 in 10.0 mi ESE 3.5 mph - N/A   Overcast
4:55 PM 75.6 °F 45.3 °F 34% 29.89 in 10.0 mi Calm Calm - N/A   Mostly Cloudy
5:14 PM 77.2 °F 46.2 °F 33% 29.89 in 10.0 mi East 3.5 mph - N/A   Mostly Cloudy
5:34 PM 75.6 °F 48.2 °F 38% 29.89 in 10.0 mi ESE 6.9 mph - N/A   Overcast
6:15 PM 75.6 °F 48.2 °F 38% 29.88 in 10.0 mi ESE 3.5 mph - N/A   Scattered Clouds
6:34 PM 76.1 °F 48.2 °F 37% 29.87 in 10.0 mi Calm Calm - N/A   Clear
6:54 PM 76.1 °F 48.6 °F 38% 29.87 in 10.0 mi ESE 3.5 mph - N/A   Clear
7:14 PM 75.6 °F 48.4 °F 38% 29.87 in 10.0 mi Calm Calm - N/A   Scattered Clouds
7:34 PM 75.2 °F 52.3 °F 45% 29.87 in 10.0 mi ENE 6.9 mph - N/A   Overcast
7:53 PM 75.7 °F 50.4 °F 41% 29.87 in 10.0 mi East 6.9 mph - N/A   Overcast
8:14 PM 74.3 °F 52.3 °F 46% 29.86 in 10.0 mi East 6.9 mph - N/A   Overcast
8:34 PM 72.7 °F 53.4 °F 51% 29.86 in 10.0 mi East 6.9 mph - N/A   Scattered Clouds
8:54 PM 71.8 °F 53.8 °F 53% 29.85 in 10.0 mi East 6.9 mph - N/A   Scattered Clouds
9:14 PM 70.7 °F 54.5 °F 56% 29.85 in 10.0 mi East 8.1 mph - N/A   Scattered Clouds
9:34 PM 69.4 °F 55.4 °F 61% 29.85 in 10.0 mi East 9.2 mph - N/A   Scattered Clouds
10:14 PM 68.4 °F 55.9 °F 64% 29.86 in 10.0 mi East 5.8 mph - N/A   Mostly Cloudy
10:34 PM 67.3 °F 56.3 °F 68% 29.85 in 10.0 mi East 6.9 mph - N/A   Scattered Clouds
10:54 PM 66.7 °F 57.2 °F 71% 29.85 in 10.0 mi East 6.9 mph - N/A   Mostly Cloudy
11:13 PM 65.8 °F 57.2 °F 74% 29.84 in 10.0 mi ESE 4.6 mph - N/A   Scattered Clouds
11:34 PM 65.1 °F 57.4 °F 76% 29.85 in 10.0 mi SE 4.6 mph - N/A   Scattered Clouds
11:54 PM 64.4 °F 57.9 °F 79% 29.85 in 10.0 mi SE 6.9 mph - N/A   Mostly Cloudy